Home > Time Zones > World Clock > Weather > Cuba > Havana > Past weeks

Flag for Cuba Weather past 2 weeks in Havana, Cuba

Now
73 °F

Passing clouds.


Feels Like: 73 °F
Forecast: 70 / 85 °F
Wind: 5 mph from South

Location: Aeropuerto Jose Marti - Rancho-Boyeros - Habana

Current Time: Feb 27, 2015 at 1:47:25 AM

Latest Report: Feb 27, 2015 at 12:55 AM


Visibility: 6 mi

Pressure: 30.01 "Hg

Humidity: 83%

Dew point: 68 °F

Location of HavanaLocation

Historic Weather in Havana — Graph

°F

Havana temperature yesterday

Maximum temperature yesterday: 84 °F (at 11:55 AM)
Minimum temperature yesterday: 72 °F (at 12:55 AM)
Average temperature yesterday: 77 °F

Past Weeks' High & Low Weather Summary

 TemperatureHumidityPressure
High88 °F (Feb 22, 2:55 PM)94% (Feb 16, 7:55 AM)30.30 "Hg (Feb 16, 7:55 AM)
Low41 °F (Feb 15, 5:55 AM)31% (Feb 12, 11:55 AM)29.86 "Hg (Feb 26, 3:55 AM)
Average67 °F68%30.10 "Hg
* Reported Feb 12 12:55 AM — Feb 27 12:55 AM, Havana, Weather by CustomWeather, © 2015

Note: Actual official high and low records may vary slightly from our data, if they occured in-between our weather recording intervals... More about our weather records

Advertising

Havana weather history for previous 24 hours

 ConditionsComfort  
Time TempWeatherWind HumidityBarometerVisibility
12:55 AM
Fri, Feb 27
73 °FPassing clouds.5 mph83%30.01 "Hg6 mi
11:55 PM
Thu, Feb 26
73 °FPassing clouds.6 mph89%30.01 "Hg6 mi
10:55 PM72 °FPassing clouds.2 mph88%30.01 "Hg6 mi
9:55 PM72 °FPassing clouds.6 mph88%30.01 "Hg6 mi
8:55 PM73 °FPassing clouds.3 mph83%29.98 "Hg6 mi
7:55 PM75 °FPassing clouds.3 mph83%29.98 "Hg6 mi
6:55 PM77 °FPassing clouds.13 mph79%29.95 "Hg6 mi
5:55 PM79 °FPartly sunny.16 mph70%29.95 "Hg6 mi
4:55 PM81 °FPartly sunny.17 mph66%29.92 "Hg6 mi
3:55 PM84 °FPartly sunny.20 mph58%29.92 "Hg6 mi
2:55 PM84 °FPartly sunny.18 mph58%29.92 "Hg6 mi
1:55 PM84 °FPartly sunny.21 mph58%29.92 "Hg6 mi
12:55 PM84 °FPartly sunny.22 mph58%29.95 "Hg6 mi
11:55 AM84 °FScattered clouds.20 mph55%29.95 "Hg6 mi
10:55 AM82 °FPassing clouds.17 mph62%29.95 "Hg6 mi
9:55 AM81 °FPassing clouds.17 mph70%29.95 "Hg6 mi
8:55 AM77 °FPassing clouds.14 mph79%29.92 "Hg6 mi
7:55 AM73 °FClear.12 mph83%29.92 "Hg6 mi
6:55 AM72 °FPassing clouds.13 mph88%29.89 "Hg6 mi
5:55 AM72 °FClear.13 mph88%29.89 "Hg6 mi
4:55 AM72 °FClear.12 mph88%29.86 "Hg6 mi
3:55 AM72 °FClear.12 mph88%29.86 "Hg6 mi
2:55 AM72 °FClear.8 mph88%29.89 "Hg6 mi
1:55 AM72 °FClear.9 mph88%29.89 "Hg6 mi
Weather by CustomWeather, © 2015

See weather overviewHow to use our weather pages